Date String (YYYY-MM-DD hh:mm:ss) UTC,Instrument flags,absolute air pressure of the measurement (hPa),sample flow rate (lpm),inlet stack bypass flow (lpm),air temperature of the measurement (°C),ambient temperature measured by the external sensor (°C),aerosol sample conditioner tube jacket temperature (°C),OPC LED temperature (°C),internal box temperature (°C),relative humidity of the measurement (%),span deviation,mass concentration of particles derived from Lorenz-Mie calculation of OPC scattering (μg/m³),mass concentration of particles derived from Lorenz-Mie calculation of OPC scattering (μg/m³),mass concentration of particles derived from Lorenz-Mie calculation of OPC scattering (μg/m³)
DateTimeUTC,F1_M11,P_M11,Q1_M11,Q2_M11,T1_M11,T2_M11,T3_M11,T4_M11,T5_M11,U1_M11,ZSPAN_M11,X0_M11,X2_M11,X1_M11
2024-03-26 06:00:00,SystemResetWarning,0819.8,5.00,000.00,018.5,017.5,000.0,027.2,020.1,15.2,0000.0,0011.40,0008.15,0007.92
2024-03-26 06:01:00,SystemResetWarning,0819.8,5.00,000.00,018.4,017.4,000.0,027.2,020.1,15.1,0000.0,0011.42,0008.09,0007.85
2024-03-26 06:02:00,SystemResetWarning,0819.9,5.00,000.00,018.4,017.4,000.0,027.2,020.1,15.1,0000.5,0011.21,0008.03,0007.79
2024-03-26 06:03:00,SystemResetWarning,0820.2,5.01,000.00,018.5,018.1,000.0,027.3,020.5,15.0,0000.0,0010.65,0007.96,0007.71
2024-03-26 06:04:00,SystemResetWarning,0819.9,4.99,000.00,018.7,019.0,000.0,027.4,021.1,14.7,0000.0,0010.63,0007.90,0007.65
2024-03-26 06:05:00,SystemResetWarning,0819.9,4.99,000.00,018.9,019.0,000.0,027.3,021.1,14.6,0000.0,0010.24,0007.87,0007.62
2024-03-26 06:06:00,SystemResetWarning,0819.9,5.01,000.00,018.9,018.8,000.0,027.3,020.9,14.5,0000.0,0010.04,0007.85,0007.59
2024-03-26 06:07:00,SystemResetWarning,0820.0,5.00,000.00,018.9,018.6,000.0,027.3,020.8,14.5,0000.0,0010.06,0007.81,0007.54
2024-03-26 06:08:00,SystemResetWarning,0819.8,5.01,000.00,018.8,018.4,000.0,027.3,020.6,14.5,0000.0,0010.17,0007.79,0007.52
2024-03-26 06:09:00,SystemResetWarning,0820.1,5.00,000.00,018.8,018.2,000.0,027.3,020.5,14.6,0000.0,0010.21,0007.79,0007.52
2024-03-26 06:10:00,SystemResetWarning,0819.9,5.00,000.00,018.7,018.1,000.0,027.3,020.4,14.6,0000.0,0010.99,0007.78,0007.52
2024-03-26 06:11:00,SystemResetWarning,0820.2,5.00,000.00,018.7,018.0,000.0,027.3,020.4,14.6,0000.0,0011.65,0007.76,0007.51
2024-03-26 06:12:00,SystemResetWarning,0820.1,5.01,000.00,018.6,017.8,000.0,027.3,020.3,14.6,0000.0,0011.70,0007.77,0007.50
2024-03-26 06:13:00,SystemResetWarning,0820.4,5.00,000.00,018.6,017.7,000.0,027.3,020.3,14.7,0000.0,0011.72,0007.78,0007.50
2024-03-26 06:14:00,SystemResetWarning,0820.2,5.01,000.00,018.6,017.6,000.0,027.2,020.2,14.7,0000.0,0011.62,0007.76,0007.50
2024-03-26 06:15:00,SystemResetWarning,0820.0,5.00,000.00,018.5,017.6,000.0,027.2,020.2,14.7,0000.0,0011.62,0007.77,0007.51
2024-03-26 06:16:00,SystemResetWarning,0819.9,4.99,000.00,018.5,017.5,000.0,027.2,020.2,14.7,0000.0,0011.68,0007.80,0007.51
2024-03-26 06:17:00,SystemResetWarning,0819.9,5.00,000.00,018.4,017.5,000.0,027.2,020.1,14.8,0000.0,0011.75,0007.79,0007.49
2024-03-26 06:18:00,SystemResetWarning,0820.0,5.00,000.00,018.4,017.5,000.0,027.2,020.1,14.8,0000.0,0011.72,0007.76,0007.48
2024-03-26 06:19:00,SystemResetWarning,0820.0,5.01,000.00,018.5,018.2,000.0,027.3,020.6,14.8,0000.0,0011.53,0007.76,0007.46
2024-03-26 06:20:00,SystemResetWarning,0820.0,4.99,000.00,018.8,019.0,000.0,027.4,021.1,14.6,0000.0,0011.46,0007.73,0007.43
2024-03-26 06:21:00,SystemResetWarning,0820.0,4.98,000.00,018.9,019.1,000.0,027.4,021.1,14.4,0000.0,0010.93,0007.70,0007.40
2024-03-26 06:22:00,SystemResetWarning,0820.0,5.00,000.00,018.9,018.9,000.0,027.3,021.0,14.4,0000.0,0010.17,0007.69,0007.38
2024-03-26 06:23:00,SystemResetWarning,0820.1,5.01,000.00,018.9,018.7,000.0,027.3,020.8,14.4,0000.0,0011.00,0007.69,0007.39
2024-03-26 06:24:00,SystemResetWarning,0820.2,5.00,000.00,018.8,018.5,000.0,027.3,020.7,14.4,0000.0,0011.20,0007.70,0007.38
2024-03-26 06:25:00,SystemResetWarning,0820.1,5.00,000.00,018.8,018.3,000.0,027.3,020.6,14.4,0000.0,0011.30,0007.69,0007.38
2024-03-26 06:26:00,SystemResetWarning,0819.9,5.00,000.00,018.8,018.2,000.0,027.3,020.5,14.4,0000.0,0011.32,0007.67,0007.35
2024-03-26 06:27:00,SystemResetWarning,0820.1,5.00,000.00,018.8,018.1,000.0,027.3,020.5,14.4,0000.0,0011.28,0007.63,0007.34
2024-03-26 06:28:00,SystemResetWarning,0820.1,5.01,000.00,018.7,018.0,000.0,027.3,020.4,14.4,0000.0,0011.20,0007.63,0007.33
2024-03-26 06:29:00,SystemResetWarning,0820.2,5.00,000.00,018.7,017.9,000.0,027.3,020.4,14.4,0000.0,0011.94,0007.62,0007.33
2024-03-26 06:30:00,SystemResetWarning,0819.9,5.01,000.00,018.7,017.8,000.0,027.3,020.4,14.4,0000.0,0012.20,0007.64,0007.34
2024-03-26 06:31:00,SystemResetWarning,0820.0,4.99,000.00,018.6,017.8,000.0,027.3,020.3,14.4,0000.0,0012.37,0007.66,0007.33
2024-03-26 06:32:00,SystemResetWarning,0820.3,4.99,000.00,018.6,017.7,000.0,027.2,020.3,14.4,0000.0,0012.41,0007.70,0007.33
2024-03-26 06:33:00,SystemResetWarning,0820.0,4.99,000.00,018.5,017.7,000.0,027.2,020.2,14.5,0000.0,0012.25,0007.68,0007.33
2024-03-26 06:34:00,SystemResetWarning,0820.1,5.01,000.00,018.5,017.6,000.0,027.2,020.2,14.5,0000.1,0011.53,0007.64,0007.31
2024-03-26 06:35:00,SystemResetWarning,0820.1,5.00,000.00,018.5,017.6,000.0,027.2,020.2,14.3,0000.3,0011.85,0007.62,0007.28
2024-03-26 06:36:00,SystemResetWarning,0820.0,5.01,000.00,018.5,017.5,000.0,027.2,020.2,14.3,0000.2,0011.79,0007.59,0007.26
2024-03-26 06:37:00,SystemResetWarning,0820.0,5.00,000.00,018.4,017.5,000.0,027.2,020.1,14.4,0000.0,0011.74,0007.58,0007.26
2024-03-26 06:38:00,SystemResetWarning,0820.0,4.99,000.00,018.4,017.5,000.0,027.2,020.1,14.4,0000.7,0011.75,0007.60,0007.27
2024-03-26 06:39:00,SystemResetWarning,0820.0,5.00,000.00,018.4,017.4,000.0,027.1,020.1,14.5,0000.0,0011.84,0007.61,0007.26
2024-03-26 06:40:00,SystemResetWarning,0820.1,5.01,000.00,018.4,017.9,000.0,027.2,020.4,14.5,0000.0,0011.35,0007.64,0007.28
2024-03-26 06:41:00,SystemResetWarning,0820.1,5.01,000.00,018.6,018.8,000.0,027.3,020.9,14.4,0000.0,0011.01,0007.63,0007.28
2024-03-26 06:42:00,SystemResetWarning,0820.0,4.99,000.00,018.8,019.1,000.0,027.3,021.1,14.2,0000.0,0011.52,0007.61,0007.28
2024-03-26 06:43:00,SystemResetWarning,0820.0,5.01,000.00,018.9,018.9,000.0,027.3,021.0,14.0,0000.0,0012.43,0007.61,0007.29
2024-03-26 06:44:00,SystemResetWarning,0820.0,5.00,000.00,018.8,018.7,000.0,027.3,020.8,14.1,0000.0,0013.04,0007.60,0007.29
2024-03-26 06:45:00,SystemResetWarning,0820.0,5.00,000.00,018.8,018.6,000.0,027.3,020.7,14.1,0000.0,0013.12,0007.62,0007.30
2024-03-26 06:46:00,SystemResetWarning,0820.0,5.00,000.00,018.8,018.4,000.0,027.3,020.6,14.1,0000.0,0012.45,0007.63,0007.33
2024-03-26 06:47:00,SystemResetWarning,0820.0,5.00,000.00,018.8,018.2,000.0,027.3,020.6,14.1,0000.0,0012.37,0007.67,0007.36
2024-03-26 06:48:00,SystemResetWarning,0820.0,5.01,000.00,018.7,018.1,000.0,027.3,020.5,14.2,0000.0,0013.20,0007.73,0007.40
2024-03-26 06:49:00,SystemResetWarning,0820.0,5.00,000.00,018.7,018.0,000.0,027.3,020.4,14.2,0000.0,0013.57,0007.77,0007.43
2024-03-26 06:50:00,SystemResetWarning,0820.0,5.00,000.00,018.7,017.9,000.0,027.3,020.4,14.3,0000.0,0014.00,0007.81,0007.46
2024-03-26 06:51:00,SystemResetWarning,0820.1,5.00,000.00,018.6,017.8,000.0,027.3,020.4,14.3,0000.0,0014.18,0007.83,0007.48
2024-03-26 06:52:00,SystemResetWarning,0820.0,5.00,000.00,018.6,017.8,000.0,027.2,020.3,14.3,0000.0,0014.29,0007.87,0007.49
2024-03-26 06:53:00,SystemResetWarning,0820.2,5.00,000.00,018.6,017.7,000.0,027.2,020.3,14.4,0000.0,0013.65,0007.86,0007.51
2024-03-26 06:54:00,SystemResetWarning,0820.3,4.99,000.00,018.5,017.7,000.0,027.2,020.3,14.4,0000.0,0012.87,0007.87,0007.54
2024-03-26 06:55:00,SystemResetWarning,0820.0,5.00,000.00,018.5,017.6,000.0,027.2,020.2,14.4,0000.0,0012.27,0007.91,0007.58
2024-03-26 06:56:00,SystemResetWarning,0820.0,5.00,000.00,018.5,017.6,000.0,027.2,020.2,14.4,0000.0,0012.29,0007.94,0007.60
2024-03-26 06:57:00,SystemResetWarning,0820.1,5.01,000.00,018.5,017.5,000.0,027.2,020.2,14.4,0000.0,0012.34,0007.97,0007.62
2024-03-26 06:58:00,SystemResetWarning,0820.0,5.00,000.00,018.4,017.5,000.0,027.2,020.2,14.4,0000.0,0012.37,0007.99,0007.62
2024-03-26 06:59:00,SystemResetWarning,0820.0,5.01,000.00,018.4,017.5,000.0,027.2,020.1,14.4,0000.0,0011.59,0007.96,0007.60
